Find Starlink 6221

NORAD ID: 56484 Int'l Des: 2023-064 Owner: SPXS Country: US Constellation: starlink operational
LEOCIRCULAR

Live-Position

3D-Globus wird geladen...

Über Starlink 6221

Beschreibung wird geladen...

Nächste Überflüge

Passes for default location (London). Set your location on the main map for personalized predictions.

Höhenverlauf

Loading altitude history...

Zweizeiliger Elementsatz

1 56484U 23064AN 26132.92881746 .00000330 00000-0 35452-4 0 9990
2 56484 69.9985 322.4064 0002957 268.0410 92.0410 14.98330465165359
Epoch: 12. Mai 2026 • Age: 16 hours

Aktueller Status

Höhe 578.6 km
Geschwindigkeit 7.57 km/s
Subsatellitenpunkt 39.93°N, 110.59°W
Startdatum 10. Mai 2023
Alter 3 years
Typ internet

Technische Details

Klassifizierung Payload
Masse 305.00 kg
Trockenmasse 290.00 kg
Gesamtmasse 305.00 kg
Länge 0.20 m
Durchmesser 2.80 m
Spannweite 9.00 m
Form Box + pan
Hersteller SPXS
Bus-Typ Starlink
Phasenstatus In Orbit
Besitzer/Staat SPXS/US

Most Searched